Regional Weather Roundup
Issued by NWS

Home | Current Version | Previous Version | Graphics & Text | Print | Product List | Glossary On
Versions: 1 2 3 4 5 6 7 8 9 10 11 12 13 14 15 16 17 18 19 20 21 22 23 24 25 26 27 28 29 30 31 32 33 34 35 36 37 38 39 40 41 42 43 44 45 46 47 48 49 50
000
ASUS43 KDTX 201510
RWRMI
MICHIGAN HOURLY REGIONAL WEATHER ROUNDUP
NATIONAL WEATHER SERVICE DETROIT/PONTIAC MI
1000 AM EST SAT DEC 20 2014

NOTE: "FAIR" INDICATES FEW OR NO CLOUDS BELOW 12,000 FEET WITH NO
SIGNIFICANT WEATHER AND/OR OBSTRUCTION TO VISIBILITY.

MIZ047>049-052>055-059>063-066>070-074>076-081>083-201600-
SOUTHEAST LOWER MICHIGAN

CITY           SKY/WX    TMP DP  RH WIND       PRES   REMARKS
ADRIAN         CLOUDY    29  22  75 CALM      30.30S
ALMA           MOSUNNY   22  21  98 CALM      30.30S FOG
ANN ARBOR      CLOUDY    28  21  75 CALM      30.31R
BAD AXE        MOSUNNY   20  19  98 CALM      30.31F
CARO           MOSUNNY   21  19  93 CALM      30.31S
DETROIT CITY   CLOUDY    30  20  66 CALM      30.32R
DETROIT        CLOUDY    28  21  75 CALM      30.33R
FLINT          PTSUNNY   27  22  81 SE3       30.30R
GROSSE ILE     CLOUDY    28  21  74 CALM      30.31R
HILLSDALE      CLOUDY    28  21  75 CALM      30.26F
HOWELL         CLOUDY    28  23  82 SW5       30.29R WCI  22

CITY           SKY/WX    TMP DP  RH WIND       PRES   REMARKS
JACKSON        CLOUDY    28  22  78 CALM      30.28F
LAMBERTVILLE   CLOUDY    32  21  64 CALM      30.31S
LANSING        CLOUDY    24  21  88 CALM      30.30S FOG
LAPEER         FAIR      22  20  93 CALM      30.30S
MASON          CLOUDY    27  22  80 CALM      30.29S
MONROE         CLOUDY    28  23  80 CALM      30.31R
MT. CLEMENS    PTSUNNY   27  26  94 N3        30.29R
PONTIAC        CLOUDY    25  20  81 CALM      30.29R
PORT HOPE        N/A     28  19  69 VRB5      30.30S WCI  23
PORT HURON     CLOUDY    25  23  93 CALM      30.31S
TRI CITIES     MOSUNNY   24  20  84 CALM      30.31F FOG
TROY           CLOUDY    29  21  72 CALM      30.32S
SAGINAW HB     MOSUNNY   23  23 100 CALM      30.31S
$$
MIZ043>046-050>051-056>058-064>065-071>073-077>080-201600-
SOUTHWEST LOWER MICHIGAN

CITY           SKY/WX    TMP DP  RH WIND       PRES   REMARKS
BATTLE CREEK   MOSUNNY   28  23  81 CALM      30.28S
BENTON HARBOR  CLOUDY    29  25  85 E3        30.28R
BIG RAPIDS     PTSUNNY   19  19  98 CALM      30.28S
COLDWATER      MOSUNNY   28  23  83 MISG      30.28S
FREMONT        CLOUDY    23  21  94 E7        30.28S WCI  14
HOLLAND        CLOUDY    27  22  81 S3        30.29R
GRAND RAPIDS   PTSUNNY   24  22  91 E3        30.28F FOG
IONIA          FAIR      24  24  99 CALM      30.28F FOG
KALAMAZOO      PTSUNNY   25  22  88 SE3       30.28S FOG
LUDINGTON      CLOUDY    26  22  85 SE6       30.29S WCI  19
MARSHALL       MOSUNNY   27  23  85 E3        30.27F
MOUNT PLEASANT PTSUNNY   20  19  94 CALM      30.30R
MUSKEGON       CLOUDY    24  20  84 E5        30.29S WCI  18
SOUTH HAVEN    CLOUDY    27  23  85 CALM      30.29R
$$
MIZ016>042-201600-
NORTHERN LOWER MICHIGAN

CITY           SKY/WX    TMP DP  RH WIND       PRES   REMARKS
ALPENA         SUNNY     18  15  88 CALM      30.32S
BEAVER ISLAND  CLOUDY    26  25  96 CALM      30.28S
BELLAIRE       CLOUDY    26  20  80 CALM      30.30S
CADILLAC       MOSUNNY   16  14  90 CALM      30.24F
CHARLEVOIX     CLOUDY    25  21  86 SE5       30.32S WCI  19
FRANKFORT      CLOUDY    27  22  83 SE6       30.28S WCI  20
GAYLORD        CLOUDY    20  19  96 CALM      30.26R
GRAYLING       CLOUDY    18  17  93 CALM      30.28S
HARBOR SPRINGS CLOUDY    19  16  89 E5        30.29S WCI  12
HOUGHTON LAKE  CLOUDY    15  12  88 E3        30.28S
MANISTEE       CLOUDY    21  18  86 E5        30.29S WCI  15
OSCODA         MOSUNNY   18  16  93 CALM      30.31S
PELLSTON       CLOUDY    16  13  88 CALM      30.30F
ROGERS CITY    MOSUNNY   20  19  97 W3        30.32S
TRAVERSE CITY  CLOUDY    26  19  74 SE6       30.28S WCI  19
$$
MIZ007>008-015-201600-
EASTERN UPPER MICHIGAN

CITY           SKY/WX    TMP DP  RH WIND       PRES   REMARKS
KINROSS        CLOUDY    18  16  93 E5        30.30R WCI  11
MACKINAC ISLAN CLOUDY    25  24  93 E3        30.29S
NEWBERRY       SUNNY     20  18  89 E5        30.26F WCI  14
S. S. MARIE    SUNNY     14  12  92 CALM      30.28S
MUNISING         N/A     15  10  80 CALM      30.26S
$$
MIZ004>006-011>014-085-201600-
CENTRAL UPPER MICHIGAN

CITY           SKY/WX    TMP DP  RH WIND       PRES   REMARKS
MANISTIQUE     MOSUNNY   20  19  96 CALM      30.27S
ESCANABA       PTSUNNY   12   9  85 CALM      30.26S
MENOMINEE      CLOUDY    18  16  93 CALM      30.27R
SAWYER-GWINN   SUNNY     10   7  85 CALM      30.21S
$$
MIZ001>003-009>011-084-201600-
WESTERN UPPER MICHIGAN

CITY           SKY/WX    TMP DP  RH WIND       PRES   REMARKS
IRON MOUNTAIN  CLOUDY    19  17  92 CALM      30.21S
HOUGHTON       CLOUDY    20  16  84 CALM      30.18S
COPPER HARBOR    N/A     24  20  84 SW6       30.21S WCI  17
IRONWOOD       CLOUDY    25  25 100 S6        30.15S WCI  18
$$

ABBREVIATIONS USED IN REMARKS
   TC - TEMPERATURE IN CELSIUS
  WCI - WIND CHILL INDEX
   HX - HEAT INDEX
  VSB - VISIBILITY



USA.gov is the U.S. government's official web portal to all federal, state and local government web resources and services.